Hourly Data Report for September 29, 2017

All times are specified in Local Standard Time (LST). Add 1 hour to adjust for Daylight Saving Time where and when it is observed.

BAS CARAQUET
NEW BRUNSWICK

47°48'08.000" N
64°50'00.000" W
5.00 m
8100467
71598
WXS

Download Data

Hourly Data (September 2017)
Hourly Data Report for September 29, 2017
Temp Definition
°C
Dew Point Temp Definition
°C
Rel Hum Definition
%
Wind Dir Definition
10's deg

Wind Spd Definition
km/h
Visibility Definition
km
Stn Press Definition
kPa
Hmdx Definition


Wind Chill Definition


Weather Definition


TIME
00:00 10.1 4.2 67 29 25   100.32     LegendNANA
01:00 10.0 4.3 67 30 25   100.35     LegendNANA
02:00 9.4 3.7 68 29 28   100.36     LegendNANA
03:00 9.0 3.8 70 30 24   100.38     LegendNANA
04:00 8.8 3.7 71 30 29   100.46     LegendNANA
05:00 8.6 3.6 71 31 30   100.54     LegendNANA
06:00 8.0 3.5 73 31 26   100.58     LegendNANA
07:00 8.0 3.4 73 30 27   100.67     LegendNANA
08:00 8.6 3.7 71 30 24   100.78     LegendNANA
09:00 8.8 3.7 70 31 25   100.86     LegendNANA
10:00 9.5 3.9 68 32 19   100.94     LegendNANA
11:00 10.4 3.2 61 33 21   100.99     LegendNANA
12:00 11.2 3.6 60 33 17   101.05     LegendNANA
13:00 12.4 4.0 57 33 15   101.08     LegendNANA
14:00 11.3 3.9 60 34 13   101.15     LegendNANA
15:00 10.6 5.2 69 2 13   101.23     LegendNANA
16:00 10.1 5.0 70 1 12   101.30     LegendNANA
17:00 9.7 5.0 73 1 15   101.39     LegendNANA
18:00 8.9 4.5 74 36 15   101.50     LegendNANA
19:00 7.2 4.7 85 1 16   101.58     LegendNANA
20:00 8.2 2.8 69 36 20   101.68     LegendNANA
21:00 8.6 2.6 66 33 17   101.71     LegendNANA
22:00 9.1 2.9 65 34 21   101.74     LegendNANA
23:00 8.7 3.0 67 33 21   101.79     LegendNANA

Notes on Data Quality.

Legend

  • E = Estimated
  • M = Missing
  • NA = Not Available
  • ‡ = Partner data that is not subject to review by the National Climate Archives
Date modified: